If you wish to contribute or participate in the discussions about articles you are invited to join SKYbrary as a registered user

 Actions

Baden Airpark

From SKYbrary Wiki

EDSB
Airport
ICAO: EDSB – IATA: FKB
Summary
Name Baden Airpark
Region Europe
Territory Germany DE.gif
Location Rheinmünster, Baden-Wurttemberg
Serving Baden Baden and Karlsruhe
Elevation 124.358 m
408 ft
408 ft124.358 m
Type large airport
Coordinates 48° 46' 40.80" N, 8° 5' 16.01" E
Runways
Designator Length Width Surface ROPS
3/21 2983 m9,786.745 ft
45 m147.638 ft
ASP yes/yes


METAR
Observation EDSB 121050Z 21009KT 9999 FEW011 BKN019 OVC023 05/03 Q1006
Station Karlsruhe, Baden Wurttemberg
Date/Time 12 December 2019 10:50:00
Wind direction 210°
Wind speed 09 kts
Lowest cloud amount few clouds
Temperature 5°C
Dew point 3°C
Humidity 86%
QNH 1006 hPa
Weather condition n/a

Baden Airpark

ICAO: EDSB IATA: FKB

Description

International airport serving Baden-Baden and Karlsruhe, Germany.

Climatology

Temperate Marine climate/Oceanic climate (Köppen climate classification Cfb) - Moderately cool summer and comparatively warm winter.

Maps

Terrain

Loading map...

Airport Layout

Loading map...


Accidents & Serious Incidents at or in vicinity of EDSB

None on SKYbrary